This is the latest recevied weather packets stored in our database for station/object ED5YAL-15. If no packets are shown the sender has not sent any weather packets the latest 1 day(s).
| Time | Temp. | Humidity | Pressure | Rain* | Wind** | Luminosity | Snow |
|---|---|---|---|---|---|---|---|
| 1778104002 | 11.67° C | 57% | 1015.6 hPa | - | - | - | - |
| 1778102200 | 11.67° C | 57% | 1015.6 hPa | - | - | - | - |
| 1778098597 | 13.89° C | 57% | 1015.1 hPa | - | - | - | - |
| 1778095013 | 12.22° C | 56% | 1014.6 hPa | - | - | - | - |
| 1778094112 | 12.78° C | 56% | 1014.5 hPa | - | - | - | - |
| 1778090509 | 13.33° C | 55% | 1014.3 hPa | - | - | - | - |
| 1778089608 | 13.33° C | 55% | 1014.1 hPa | - | - | - | - |
| 1778088707 | 12.78° C | 55% | 1014.2 hPa | - | - | - | - |
| 1778086007 | 13.33° C | 53% | 1014 hPa | - | - | - | - |
| 1778084203 | 13.89° C | 52% | 1013.6 hPa | - | - | - | - |
| 1778083302 | 13.89° C | 52% | 1013.9 hPa | - | - | - | - |
| 1778082401 | 15.56° C | 51% | 1014.1 hPa | - | - | - | - |
| 1778080607 | 16.11° C | 51% | 1014.1 hPa | - | - | - | - |
| 1778079699 | 15.56° C | 51% | 1014.1 hPa | - | - | - | - |
| 1778078798 | 15.56° C | 50% | 1014.2 hPa | - | - | - | - |
| 1778074320 | 21.67° C | 48% | 1014.5 hPa | - | - | - | - |
| 1778073419 | 20° C | 48% | 1014.6 hPa | - | - | - | - |
| 1778072518 | 20.56° C | 49% | 1014.6 hPa | - | - | - | - |
| 1778069818 | 16.11° C | 50% | 1015.1 hPa | - | - | - | - |
| 1778068916 | 16.11° C | 50% | 1015.1 hPa | - | - | - | - |
| 1778067113 | 16.11° C | 49% | 1015.2 hPa | - | - | - | - |
| 1778066212 | 16.67° C | 49% | 1015.2 hPa | - | - | - | - |
| 1778059001 | 22.22° C | 47% | 1015 hPa | - | - | - | - |
| 1778058138 | 20.56° C | 48% | 1015 hPa | - | - | - | - |
| 1778058102 | 20.56° C | 48% | 1015 hPa | - | - | - | - |
* Rain since midnight (hover to see other rain measurements)
** Current wind speed in m/s (hover to see current wind gust speed)